[[{"header":{"parameterUnit":"m.s-1","parameterCategory":1,"la1":30.2991,"la2":30.254,"lo1":-89.0895,"lo2":-89.0444,"dy":0.0017,"dx":0.0017,"nx":28,"ny":28,"refTime":"2024-04-28T21:00:00:Z","depth":0,"parameterNumber":2,"parameterNumberName":"U-component_of_WINDS"},"data":[0,0,0,0,0,0,0,0,0,0,0,0,0,0,0,0,0,0,0,0,0,0,0,0,0,0,0,0,0,0,0,0,0,0,0,0,0,0,0,0,0,0,0,0,0,0,0,0,0,0,0,0,0,0,0,0,0,0,-0.479,-0.4791,0,-0.4871,-0.4872,-0.4873,-0.4904,-0.4904,-0.4904,-0.4903,-0.4988,-0.4991,-0.4993,0,0,0,0,0,0,0,0,0,0,0,0,0,-0.4665,-0.4667,-0.479,-0.4791,-0.4792,-0.4871,-0.4872,-0.4873,-0.4904,-0.4904,-0.4904,-0.4903,-0.4988,-0.4991,-0.4993,0,0,0,0,0,0,0,0,0,0,0,0,0,-0.473,-0.4668,-0.479,-0.4817,-0.482,-0.4871,-0.4872,-0.4873,-0.4904,-0.4904,-0.4903,-0.4903,-0.4987,-0.499,-0.4994,-0.5024,0,0,-0.5005,-0.5007,0,0,0,0,0,0,0,0,-0.4726,-0.4735,-0.4812,-0.4815,-0.4819,-0.4877,-0.4859,-0.4924,-0.4904,-0.4872,-0.4903,-0.4903,-0.4952,-0.4958,-0.4974,-0.5028,-0.5032,-0.5006,-0.5008,-0.5009,-0.5011,0,0,0,0,0,0,0,-0.4722,-0.4731,-0.4822,-0.4813,-0.4817,-0.4826,-0.4835,-0.4872,-0.4913,-0.4875,-0.4878,-0.4887,-0.4954,-0.4971,-0.4977,-0.5033,-0.5006,-0.5009,-0.5011,-0.5013,-0.5116,-0.5117,0,0,0,0,0,0,-0.4712,-0.4727,-0.482,-0.4825,-0.4771,-0.4829,-0.4838,-0.4859,-0.4913,-0.4921,-0.4887,-0.4888,-0.4965,-0.4972,-0.498,-0.5019,-0.5009,-0.5013,-0.5015,-0.5116,-0.5116,-0.5117,0,0,0,0,0,0,-0.471,-0.472,-0.4816,-0.4777,-0.479,-0.4831,-0.4854,-0.4861,-0.4878,-0.4922,-0.4929,-0.4896,-0.4965,-0.4974,-0.5013,-0.5023,-0.5015,-0.5018,-0.5115,-0.5116,-0.5117,-0.5098,0,0,0,0,0,0,-0.4706,-0.4719,-0.473,-0.4777,-0.4792,-0.4847,-0.4854,-0.4862,-0.4884,-0.4886,-0.4933,-0.494,-0.4965,-0.5007,-0.5017,-0.5028,-0.5021,-0.5115,-0.5116,-0.5116,-0.5098,-0.5098,-0.5098,0,0,0,0,0,-0.4701,-0.4722,-0.4731,-0.4742,-0.4806,-0.4848,-0.4856,-0.4884,-0.4884,-0.4897,-0.4925,-0.4939,-0.502,-0.5011,-0.5022,-0.5034,-0.5114,-0.5115,-0.5116,-0.5098,-0.5098,-0.5098,0,0,0,0,0,0,-0.4677,-0.4729,-0.4739,-0.4775,-0.4807,-0.4853,-0.4869,-0.4883,-0.4916,-0.4916,-0.495,-0.496,-0.4996,-0.5019,-0.5008,-0.5066,-0.5068,-0.5071,-0.505,-0.505,-0.505,-0.5044,-0.5024,0,0,0,0,0,-0.4675,-0.4704,-0.4748,-0.4776,-0.4791,-0.4827,-0.4846,-0.4865,-0.4899,-0.4913,-0.4944,-0.4977,-0.5011,-0.5032,-0.5065,-0.5101,-0.5112,-0.5115,-0.5115,-0.5115,-0.5118,-0.5139,-0.5141,-0.5121,-0.5121,-0.5121,0,0,-0.4673,-0.4705,-0.4721,-0.4772,-0.4798,-0.4828,-0.4838,-0.4869,-0.4892,-0.4918,-0.4956,-0.498,-0.502,-0.5057,-0.5075,-0.5077,-0.5126,-0.5116,-0.5116,-0.5119,-0.5141,-0.5143,-0.5144,-0.5122,-0.5122,-0.5121,0,0,-0.4684,-0.4711,-0.4737,-0.4764,-0.4804,-0.4828,-0.4834,-0.4878,-0.4895,-0.4933,-0.4954,-0.4981,-0.5038,-0.5065,-0.5087,-0.5108,-0.5123,-0.5118,-0.5119,-0.514,-0.5141,-0.5143,-0.5151,-0.5154,-0.5121,-0.5121,-0.5121,0,-0.4677,-0.4721,-0.4749,-0.4779,-0.4801,-0.4825,-0.4853,-0.4877,-0.4926,-0.4941,-0.4943,-0.5014,-0.5042,-0.5087,-0.5092,-0.5109,-0.5118,-0.5113,-0.5139,-0.514,-0.5142,-0.5151,-0.5154,-0.512,-0.512,-0.512,-0.512,0,-0.471,-0.4741,-0.4758,-0.4804,-0.4828,-0.4856,-0.4889,-0.491,-0.4926,-0.495,-0.499,-0.5025,-0.5065,-0.5077,-0.5094,-0.5125,-0.5125,-0.5132,-0.5134,-0.5143,-0.5152,-0.5155,-0.5119,-0.5119,-0.5119,-0.512,0,0,-0.4708,-0.4769,-0.4775,-0.4796,-0.4842,-0.4867,-0.4897,-0.4936,-0.4954,-0.4987,-0.5013,-0.506,-0.5067,-0.5092,-0.5112,-0.513,-0.5146,-0.5135,-0.5136,-0.5136,-0.5183,-0.5177,-0.5181,-0.5155,-0.5156,-0.5156,-0.518,0,-0.4726,-0.478,-0.4806,-0.4849,-0.4878,-0.4901,-0.4928,-0.4959,-0.4982,-0.5011,-0.5038,-0.5071,-0.5077,-0.5092,-0.5111,-0.5139,-0.5156,-0.5138,-0.5181,-0.5182,-0.5171,-0.5185,-0.518,-0.52,-0.5183,-0.5184,-0.5184,0,-0.4754,-0.4786,-0.4831,-0.4874,-0.4888,-0.4911,-0.4949,-0.4976,-0.5012,-0.5028,-0.5055,-0.5074,-0.5108,-0.5107,-0.5155,-0.5142,-0.5161,-0.5178,-0.518,-0.5185,-0.5184,-0.5192,-0.5207,-0.521,-0.519,-0.5189,-0.5189,0,-0.4749,-0.4804,-0.4838,-0.4855,-0.4906,-0.4922,-0.4944,-0.498,-0.5002,-0.5036,-0.505,-0.5088,-0.5108,-0.5137,-0.5166,-0.5163,-0.5211,-0.5213,-0.5226,-0.5225,-0.5235,-0.5234,-0.5254,-0.5246,-0.5246,-0.5246,-0.5246,0,-0.4766,-0.4793,-0.4836,-0.4857,-0.4889,-0.4919,-0.4949,-0.4973,-0.5005,-0.5032,-0.5055,-0.508,-0.5117,-0.5147,-0.517,-0.5206,-0.5215,-0.5229,-0.5235,-0.5228,-0.5226,-0.5241,-0.5241,-0.5247,-0.5247,-0.5247,-0.5247,0,-0.4766,-0.4796,-0.4835,-0.4879,-0.4891,-0.4912,-0.4951,-0.4973,-0.4997,-0.5031,-0.5041,-0.508,-0.5116,-0.5148,-0.5196,-0.5212,-0.5249,-0.5256,-0.5236,-0.524,-0.5251,-0.525,-0.5282,-0.5288,-0.5275,-0.5276,-0.5276,0,-0.4775,-0.4797,-0.4843,-0.4863,-0.4884,-0.4915,-0.4937,-0.4968,-0.499,-0.5034,-0.5051,-0.5089,-0.5121,-0.5178,-0.5211,-0.5248,-0.5257,-0.5266,-0.5263,-0.5254,-0.5258,-0.5257,-0.5259,-0.5266,-0.5266,-0.5266,-0.5266,0,-0.4789,-0.4803,-0.4834,-0.487,-0.4896,-0.4926,-0.4957,-0.4972,-0.5008,-0.5033,-0.507,-0.5094,-0.5144,-0.5181,-0.5222,-0.5246,-0.5263,-0.5266,-0.5271,-0.5264,-0.5252,-0.5259,-0.5237,-0.5265,-0.5265,-0.5265,-0.5265,-0.5265,-0.4795,-0.4815,-0.4851,-0.4885,-0.4911,-0.494,-0.4962,-0.4989,-0.5021,-0.5062,-0.5079,-0.5117,-0.5154,-0.521,-0.5234,-0.5265,-0.5268,-0.5275,-0.5277,-0.5278,-0.5278,-0.5246,-0.5273,-0.5273,-0.5273,-0.5273,-0.5273,0,-0.4811,-0.4835,-0.4865,-0.4908,-0.4935,-0.4946,-0.4981,-0.5003,-0.5036,-0.5069,-0.5099,-0.5143,-0.5179,-0.5215,-0.5254,-0.5272,-0.528,-0.5281,-0.5281,-0.5286,-0.5272,-0.5264,-0.5274,-0.5274,-0.5274,-0.5274,-0.5274,-0.5274,-0.4822,-0.4857,-0.4875,-0.4923,-0.4948,-0.4984,-0.5003,-0.503,-0.5056,-0.5103,-0.5133,-0.5156,-0.519,-0.5232,-0.5266,-0.5276,-0.529,-0.5289,-0.53,-0.5287,-0.5287,-0.5286,-0.5279,-0.5291,-0.5291,-0.5311,-0.5312,-0.5312]},{"header":{"parameterUnit":"m.s-1","parameterCategory":1,"la1":30.2991,"la2":30.254,"lo1":-89.0895,"lo2":-89.0444,"dy":0.0017,"dx":0.0017,"nx":28,"ny":28,"refTime":"2024-04-28T21:00:00:Z","depth":0,"parameterNumber":3,"parameterNumberName":"V-component_of_WINDS"},"data":[0,0,0,0,0,0,0,0,0,0,0,0,0,0,0,0,0,0,0,0,0,0,0,0,0,0,0,0,0,0,0,0,0,0,0,0,0,0,0,0,0,0,0,0,0,0,0,0,0,0,0,0,0,0,0,0,0,0,3.2829,3.283,0,3.2853,3.2853,3.2854,3.2842,3.2841,3.284,3.284,3.2863,3.2864,3.2865,0,0,0,0,0,0,0,0,0,0,0,0,0,3.2774,3.2775,3.2829,3.283,3.283,3.2853,3.2853,3.2854,3.2842,3.2841,3.284,3.2839,3.2862,3.2864,3.2865,0,0,0,0,0,0,0,0,0,0,0,0,0,3.2798,3.2775,3.2829,3.2827,3.2827,3.2853,3.2853,3.2854,3.2842,3.2841,3.284,3.2839,3.2862,3.2863,3.2865,3.2895,0,0,3.2871,3.2871,0,0,0,0,0,0,0,0,3.2796,3.28,3.2827,3.2827,3.2827,3.2843,3.2842,3.2867,3.2842,3.2836,3.284,3.2839,3.2857,3.2859,3.2865,3.2896,3.2897,3.2871,3.2872,3.2873,3.2873,0,0,0,0,0,0,0,3.2795,3.2799,3.2839,3.2827,3.2827,3.2824,3.2827,3.2847,3.2851,3.2837,3.2836,3.2839,3.2857,3.2864,3.2866,3.2897,3.2871,3.2872,3.2873,3.2874,3.2954,3.2955,0,0,0,0,0,0,3.2793,3.2797,3.2838,3.2839,3.2809,3.2826,3.2829,3.2839,3.2851,3.2852,3.284,3.2838,3.2861,3.2864,3.2867,3.2903,3.2872,3.2874,3.2875,3.2953,3.2955,3.2956,0,0,0,0,0,0,3.2792,3.2797,3.2837,3.2818,3.2823,3.2828,3.284,3.284,3.2847,3.2853,3.2854,3.2846,3.286,3.2864,3.2888,3.2904,3.2875,3.2877,3.2952,3.2954,3.2955,3.2975,0,0,0,0,0,0,3.2791,3.2797,3.2808,3.2819,3.2824,3.2858,3.2841,3.2841,3.285,3.2849,3.2859,3.286,3.286,3.2886,3.289,3.2905,3.2878,3.2951,3.2953,3.2955,3.2973,3.2977,3.2981,0,0,0,0,0,3.2789,3.2812,3.2808,3.2813,3.2838,3.2859,3.2862,3.2862,3.2851,3.2863,3.2867,3.286,3.2901,3.2888,3.2893,3.2909,3.295,3.2952,3.2955,3.2972,3.2977,3.2981,0,0,0,0,0,0,3.2801,3.2813,3.2809,3.2837,3.2847,3.2857,3.2871,3.2867,3.288,3.2878,3.2876,3.2879,3.2904,3.2909,3.2894,3.2939,3.2924,3.2927,3.2935,3.294,3.2944,3.2942,3.2879,0,0,0,0,0,3.2808,3.2824,3.2833,3.2856,3.2862,3.2866,3.2875,3.2874,3.2884,3.2889,3.2895,3.2905,3.292,3.293,3.2945,3.2974,3.2977,3.2988,3.2992,3.2995,3.2998,3.3015,3.3021,3.2964,3.2964,3.2964,0,0,3.282,3.2828,3.2839,3.2859,3.2867,3.2884,3.2869,3.2888,3.2901,3.2891,3.2915,3.292,3.2931,3.2959,3.2971,3.2963,3.3014,3.2998,3.3,3.3002,3.3018,3.3024,3.3028,3.2965,3.2965,3.2965,0,0,3.2852,3.2859,3.288,3.2889,3.2902,3.2905,3.291,3.2921,3.2925,3.2949,3.2942,3.2958,3.2984,3.2993,3.3001,3.3039,3.3033,3.3043,3.3063,3.308,3.3085,3.3089,3.3103,3.3108,3.3046,3.3046,3.3046,0,3.2865,3.2891,3.2892,3.2911,3.2921,3.2914,3.2936,3.2944,3.2961,3.2968,3.2959,3.2994,3.3001,3.3031,3.304,3.3047,3.3053,3.3042,3.3084,3.3088,3.3092,3.3105,3.3111,3.3048,3.3047,3.3047,3.3047,0,3.2908,3.2927,3.2942,3.296,3.2971,3.2991,3.2995,3.3007,3.3005,3.3009,3.3034,3.3043,3.306,3.3067,3.3065,3.3097,3.3093,3.3084,3.3069,3.3098,3.3111,3.3117,3.3049,3.3049,3.3048,3.3048,0,0,3.2947,3.2967,3.2972,3.2981,3.2996,3.301,3.303,3.3048,3.3058,3.307,3.3088,3.3112,3.3105,3.3114,3.3113,3.3128,3.3159,3.3118,3.3118,3.3126,3.3197,3.3203,3.3209,3.3155,3.3156,3.3157,3.3196,0,3.2981,3.3018,3.302,3.3053,3.3071,3.3066,3.3084,3.3095,3.31,3.3115,3.312,3.3137,3.3126,3.3132,3.3147,3.3152,3.3173,3.3149,3.3172,3.3173,3.317,3.3216,3.3223,3.3259,3.3201,3.3202,3.3202,0,3.3025,3.304,3.3075,3.309,3.3097,3.3113,3.313,3.3145,3.3158,3.3161,3.3172,3.317,3.3192,3.3176,3.3206,3.319,3.32,3.3204,3.3205,3.3208,3.319,3.322,3.327,3.3276,3.321,3.321,3.3209,0,3.3051,3.308,3.3106,3.3113,3.313,3.3142,3.3149,3.3161,3.3172,3.3187,3.3195,3.3212,3.3221,3.3234,3.3237,3.3225,3.3268,3.3252,3.3271,3.3271,3.328,3.328,3.3333,3.3286,3.3286,3.3285,3.3285,0,3.3088,3.3111,3.3118,3.3134,3.3159,3.3161,3.3186,3.3192,3.3204,3.3221,3.3217,3.3234,3.3236,3.3253,3.3255,3.3281,3.3285,3.3288,3.3288,3.3288,3.3288,3.3295,3.3292,3.3287,3.3287,3.3286,3.3286,0,3.3122,3.3128,3.3155,3.317,3.3174,3.3192,3.3204,3.322,3.3225,3.3246,3.3252,3.3259,3.3279,3.3284,3.3307,3.3308,3.3339,3.3337,3.3335,3.3335,3.3354,3.3353,3.3414,3.3423,3.3369,3.337,3.337,0,3.3145,3.3163,3.318,3.3191,3.32,3.3219,3.323,3.3234,3.3246,3.3263,3.3277,3.3297,3.3313,3.3345,3.3353,3.3371,3.3369,3.339,3.3372,3.3372,3.3371,3.337,3.3372,3.3393,3.3393,3.3394,3.3394,0,3.3187,3.319,3.3207,3.3227,3.3241,3.3256,3.327,3.328,3.3285,3.3299,3.332,3.3333,3.3358,3.3378,3.3396,3.3404,3.3401,3.34,3.3406,3.3406,3.3405,3.3407,3.3345,3.3399,3.3398,3.3398,3.3398,3.3397,3.3217,3.3233,3.3248,3.3268,3.328,3.3293,3.3309,3.3317,3.3335,3.3356,3.3356,3.338,3.3394,3.3419,3.3428,3.3446,3.344,3.3447,3.345,3.3452,3.3454,3.3402,3.3449,3.3449,3.3449,3.3449,3.3449,0,3.326,3.327,3.3288,3.3309,3.3325,3.3321,3.3337,3.3351,3.3372,3.3386,3.3402,3.3427,3.3447,3.3457,3.3477,3.349,3.3489,3.3495,3.3494,3.3496,3.3458,3.3452,3.3496,3.3496,3.3496,3.3496,3.3496,3.3496,3.3284,3.3311,3.3316,3.3349,3.3359,3.3382,3.3392,3.3405,3.3416,3.3444,3.3461,3.3468,3.3481,3.3502,3.352,3.3523,3.3531,3.3538,3.354,3.3504,3.3499,3.3494,3.3488,3.3539,3.3539,3.3577,3.3577,3.3577]}]]